This is the latest recevied weather packets stored in our database for station/object KD0ISH. If no packets are shown the sender has not sent any weather packets the latest 10 day(s).
| Time | Temp. | Humidity | Pressure | Rain* | Wind** | Luminosity | Snow |
|---|---|---|---|---|---|---|---|
| 1777753148 | 17.78° C | 43% | 1021.3 hPa | 0 mm | - | 565 W/m² | - |
| 1777752843 | 18.33° C | 43% | 1021.4 hPa | 0 mm | - | 606 W/m² | - |
| 1777752540 | 17.22° C | 46% | 1021.6 hPa | 0 mm | - | 625 W/m² | - |
| 1777752236 | 17.78° C | 44% | 1021.8 hPa | 0 mm | - | 690 W/m² | - |
| 1777751934 | 19.44° C | 42% | 1021.5 hPa | 0 mm | - | 135 W/m² | - |
| 1777751630 | 18.89° C | 45% | 1021.5 hPa | 0 mm | - | 678 W/m² | - |
| 1777751327 | 18.33° C | 40% | 1021.5 hPa | 0 mm | - | 666 W/m² | - |
| 1777751024 | 17.22° C | 43% | 1021.5 hPa | 0 mm | - | 672 W/m² | - |
| 1777750720 | 16.11° C | 45% | 1021.6 hPa | 0 mm | - | 669 W/m² | - |
| 1777750417 | 16.11° C | 44% | 1021.5 hPa | 0 mm | - | 691 W/m² | - |
| 1777750113 | 17.22° C | 43% | 1021.8 hPa | 0 mm | - | 386 W/m² | - |
| 1777749810 | 17.22° C | 47% | 1021.6 hPa | 0 mm | - | 691 W/m² | - |
| 1777749507 | 17.22° C | 44% | 1021.8 hPa | 0 mm | - | 689 W/m² | - |
| 1777749205 | 16.11° C | 45% | 1021.9 hPa | 0 mm | - | 676 W/m² | - |
| 1777748902 | 15.56° C | 46% | 1022.1 hPa | 0 mm | - | 117 W/m² | - |
| 1777748599 | 16.11° C | 45% | 1022.1 hPa | 0 mm | - | 713 W/m² | - |
| 1777748295 | 16.67° C | 47% | 1021.8 hPa | 0 mm | - | 91 W/m² | - |
| 1777747991 | 17.78° C | 48% | 1021.6 hPa | 0 mm | - | 147 W/m² | - |
| 1777747688 | 17.22° C | 45% | 1021.8 hPa | 0 mm | - | 725 W/m² | - |
| 1777747383 | 17.22° C | 45% | 1022 hPa | 0 mm | - | 722 W/m² | - |
| 1777747080 | 16.67° C | 46% | 1022 hPa | 0 mm | - | 709 W/m² | - |
| 1777746776 | 16.67° C | 51% | 1022 hPa | 0 mm | - | 272 W/m² | - |
| 1777746472 | 17.22° C | 49% | 1022 hPa | 0 mm | - | 757 W/m² | - |
| 1777746168 | 16.67° C | 45% | 1022 hPa | 0 mm | - | 789 W/m² | - |
| 1777745864 | 15.56° C | 50% | 1022.2 hPa | 0 mm | - | 684 W/m² | - |
* Rain latest hour (hover to see other rain measurements)
** Current wind speed in m/s (hover to see current wind gust speed)